Location: Unspecified
(49.2170°N, 0.0000°E)
Time: 17:09:20
(UTC+00:00)

Envisat - Pass Details

Date: 30 November 2020
Orbit: 764 x 766 km, 98.1° (Epoch: 20 January)

Event Time Altitude Azimuth Distance (km) Brightness Sun altitude
Rises 17:12:45 0° 175° (S) 3,220 6.4 -10.7°
Reaches altitude 10° 17:15:05 10° 179° (S) 2,299 5.7 -11.1°
Maximum altitude 17:20:05 60° 259° (W) 879 3.7 -11.8°
Drops below altitude 10° 17:25:08 10° 340° (NNW) 2,316 5.5 -12.6°
Sets 17:27:29 0° 344° (NNW) 3,247 6.2 -13.0°
